This is the latest recevied weather packets stored in our database for station/object NA9VY-8. If no packets are shown the sender has not sent any weather packets the latest 10 day(s).
| Time | Temp. | Humidity | Pressure | Rain* | Wind** | Luminosity | Snow |
|---|---|---|---|---|---|---|---|
| 1777858611 | 15° C | 59% | 1015.5 hPa | 0 mm | - | 0 W/m² | - |
| 1777858308 | 15° C | 58% | 1015.5 hPa | 0 mm | - | 0 W/m² | - |
| 1777858005 | 15° C | 58% | 1015.3 hPa | 0 mm | - | 0 W/m² | - |
| 1777857703 | 15° C | 58% | 1015.2 hPa | 0 mm | - | 0 W/m² | - |
| 1777857399 | 15° C | 58% | 1015.1 hPa | 0 mm | - | 0 W/m² | - |
| 1777857096 | 15° C | 58% | 1015.2 hPa | 0 mm | - | 0 W/m² | - |
| 1777856792 | 15° C | 58% | 1015.3 hPa | 0 mm | - | 0 W/m² | - |
| 1777856488 | 15° C | 58% | 1015.2 hPa | 0 mm | - | 0 W/m² | - |
| 1777856185 | 15.56° C | 58% | 1015.3 hPa | 0 mm | - | 0 W/m² | - |
| 1777855882 | 15.56° C | 57% | 1015.7 hPa | 0 mm | - | 0 W/m² | - |
| 1777855580 | 15.56° C | 56% | 1015.8 hPa | 0 mm | - | 0 W/m² | - |
| 1777855277 | 15.56° C | 57% | 1016.1 hPa | 0 mm | - | 0 W/m² | - |
| 1777854973 | 15.56° C | 56% | 1016.1 hPa | 0 mm | - | 0 W/m² | - |
| 1777854670 | 15.56° C | 55% | 1015.9 hPa | 0 mm | - | 0 W/m² | - |
| 1777854366 | 15.56° C | 55% | 1015.9 hPa | 0 mm | - | 0 W/m² | - |
| 1777854064 | 15.56° C | 54% | 1015.8 hPa | 0 mm | - | 1 W/m² | - |
| 1777853762 | 15.56° C | 55% | 1015.9 hPa | 0 mm | - | 4 W/m² | - |
| 1777853457 | 16.11° C | 55% | 1015.9 hPa | 0 mm | - | 6 W/m² | - |
| 1777853155 | 16.11° C | 53% | 1016 hPa | 0 mm | - | 13 W/m² | - |
| 1777852852 | 16.11° C | 53% | 1016.4 hPa | 0 mm | - | 21 W/m² | - |
| 1777852550 | 16.11° C | 52% | 1016.5 hPa | 0 mm | - | 12 W/m² | - |
| 1777852247 | 16.11° C | 53% | 1016.4 hPa | 0 mm | - | 16 W/m² | - |
| 1777851944 | 16.11° C | 53% | 1016.3 hPa | 0 mm | - | 13 W/m² | - |
| 1777851643 | 16.11° C | 51% | 1016 hPa | 0 mm | - | 18 W/m² | - |
| 1777851339 | 16.11° C | 51% | 1015.9 hPa | 0 mm | - | 26 W/m² | - |
* Rain latest hour (hover to see other rain measurements)
** Current wind speed in m/s (hover to see current wind gust speed)